User: anonymous   Login
Location: Unspecified
(0.0000°N, 0.0000°E)
Time: 06:48:59
(UTC+00:00)
Language:

Himawari - Orbit

View from above orbital plane
View from above orbital plane
View from above satellite
View from above satellite

Ground track
Ground track

The orbit data is extracted from the following two-line orbital elements,

1 10143U 77065A   19082.54472389 -.00000267  00000-0  00000+0 0  9991
2 10143  12.4002 319.8527 0013290 165.4075  10.5836  0.99249791 94981
Epoch (UTC): 23 March 2019 13:04:24
Eccentricity: 0.0013290
inclination: 12.4002°
perigee height: 36019 km
apogee height: 36131 km
right ascension of ascending node: 319.8527°
argument of perigee: 165.4075°
revolutions per day: 0.99249791
mean anomaly at epoch: 10.5836°
orbit number at epoch: 9498

The dashed part of the orbit path shows where the satellite is in the earth's shadow,  

DLR